EW0923 Weather Reports


Display with metric or nautical units.
time (UTC)temp
F
wind
direction
speed
MPH
gust
MPH
rain 1hr
in
rain 24hr
in
rain mn
in
humidity
%
barometer
mb
20260510224025 68 340 0.0 3.0 0.00 0.00 0.00 73 1012.5
20260510223525 68 24 1.0 3.0 0.00 0.00 0.00 72 1012.4
20260510223036 68 290 0.0 5.0 0.00 0.00 0.00 72 1012.3
20260510222526 68 338 1.0 5.0 0.00 0.00 0.00 72 1012.3
20260510222025 68 306 1.0 7.0 0.00 0.00 0.00 72 1012.5
20260510221545 69 290 1.0 7.0 0.00 0.00 0.00 72 1012.4
20260510221026 69 329 3.0 6.0 0.00 0.00 0.00 71 1012.3
20260510220526 69 346 2.0 8.0 0.00 0.00 0.00 71 1012.3
20260510220046 69 338 2.0 9.0 0.00 0.00 0.00 70 1012.3
20260510215525 70 281 2.0 9.0 0.00 0.00 0.00 70 1012.2
20260510215028 70 331 2.0 9.0 0.00 0.00 0.00 65 1012.2
20260510214541 71 344 2.0 9.0 0.00 0.00 0.00 62 1012.3
20260510214025 73 296 2.0 9.0 0.00 0.00 0.00 58 1012.3
20260510213529 73 295 2.0 9.0 0.00 0.00 0.00 54 1012.3
20260510213050 74 319 2.0 6.0 0.00 0.00 0.00 53 1012.1
20260510212525 74 332 1.0 4.0 0.00 0.00 0.00 52 1012.0
20260510212027 74 313 1.0 4.0 0.00 0.00 0.00 52 1012.0
20260510211536 74 288 1.0 5.0 0.00 0.00 0.00 51 1011.7
20260510211029 74 355 1.0 5.0 0.00 0.00 0.00 51 1011.4
20260510210532 75 317 1.0 4.0 0.00 0.00 0.00 51 1011.4
20260510210045 75 333 1.0 4.0 0.00 0.00 0.00 51 1011.2
20260510205529 75 11 0.0 4.0 0.00 0.00 0.00 53 1011.2
20260510205029 75 0 1.0 5.0 0.00 0.00 0.00 53 1011.2
20260510204553 75 68 1.0 5.0 0.00 0.00 0.00 52 1011.2
20260510204028 74 312 2.0 5.0 0.00 0.00 0.00 52 1011.2
20260510203529 74 321 1.0 5.0 0.00 0.00 0.00 51 1011.3
20260510203042 75 355 2.0 9.0 0.00 0.00 0.00 51 1011.3
20260510202529 75 338 3.0 9.0 0.00 0.00 0.00 50 1011.3
20260510202028 75 291 3.0 9.0 0.00 0.00 0.00 51 1011.3
20260510201541 75 309 3.0 9.0 0.00 0.00 0.00 52 1011.3
20260510201029 75 305 1.0 5.0 0.00 0.00 0.00 55 1011.3
20260510200529 74 272 2.0 6.0 0.00 0.00 0.00 54 1011.5
20260510200046 75 289 2.0 7.0 0.00 0.00 0.00 53 1011.5
20260510195528 75 273 2.0 11.0 0.00 0.00 0.00 50 1011.5
20260510195030 75 271 2.0 11.0 0.00 0.00 0.00 49 1011.6
20260510194545 76 29 2.0 5.0 0.00 0.00 0.00 48 1011.5
20260510194032 76 323 0.0 5.0 0.00 0.00 0.00 48 1011.5
20260510193530 75 341 2.0 5.0 0.00 0.00 0.00 47 1011.6
20260510193044 76 325 1.0 9.0 0.00 0.00 0.00 47 1011.6
20260510192525 76 302 5.0 9.0 0.00 0.00 0.00 46 1011.6
20260510192030 77 288 2.0 4.0 0.00 0.00 0.00 45 1011.7
20260510191548 77 300 1.0 2.0 0.00 0.00 0.00 44 1011.8
20260510191028 77 304 1.0 7.0 0.00 0.00 0.00 43 1011.8
20260510190533 77 263 1.0 7.0 0.00 0.00 0.00 44 1011.8
20260510190044 78 264 1.0 3.0 0.00 0.00 0.00 42 1011.8
20260510185529 78 338 1.0 5.0 0.00 0.00 0.00 40 1011.9
20260510185031 78 287 2.0 6.0 0.00 0.00 0.00 39 1011.8
20260510184544 78 111 2.0 6.0 0.00 0.00 0.00 40 1011.8
20260510184029 78 229 1.0 8.0 0.00 0.00 0.00 39 1011.7
20260510183529 79 304 2.0 8.0 0.00 0.00 0.00 40 1011.8
20260510183047 79 303 3.0 7.0 0.00 0.00 0.00 39 1011.9
20260510182532 79 269 3.0 10.0 0.00 0.00 0.00 39 1011.8
20260510182029 79 186 2.0 11.0 0.00 0.00 0.00 40 1011.9
20260510181549 79 282 2.0 11.0 0.00 0.00 0.00 39 1011.8
20260510181028 79 223 2.0 10.0 0.00 0.00 0.00 42 1012.0
20260510180526 79 277 3.0 10.0 0.00 0.00 0.00 41 1012.0
20260510180044 79 264 2.0 7.0 0.00 0.00 0.00 42 1012.0
20260510175526 79 280 2.0 5.0 0.00 0.00 0.00 42 1012.0
20260510175025 78 296 1.0 9.0 0.00 0.00 0.00 43 1012.0
20260510174550 78 305 1.0 10.0 0.00 0.00 0.00 43 1011.9
20260510174025 78 261 2.0 12.0 0.00 0.00 0.00 42 1011.9
20260510173527 78 250 5.0 12.0 0.00 0.00 0.00 42 1011.7
20260510173036 79 271 3.0 9.0 0.00 0.00 0.00 41 1011.6
20260510172527 78 10 3.0 9.0 0.00 0.00 0.00 43 1011.6
20260510172026 78 260 3.0 7.0 0.00 0.00 0.00 42 1011.6
20260510171545 78 264 2.0 7.0 0.00 0.00 0.00 43 1011.8
20260510171027 77 171 2.0 6.0 0.00 0.00 0.00 45 1011.8
20260510170525 77 234 1.0 12.0 0.00 0.00 0.00 45 1011.8
20260510170044 77 288 3.0 13.0 0.00 0.00 0.00 46 1011.9
20260510165526 77 273 3.0 13.0 0.00 0.00 0.00 44 1011.8
20260510165026 77 338 1.0 5.0 0.00 0.00 0.00 47 1011.9
20260510164604 77 287 2.0 6.0 0.00 0.00 0.00 46 1011.8
20260510164026 78 298 1.0 7.0 0.00 0.00 0.00 46 1011.8
20260510163527 77 144 2.0 7.0 0.00 0.00 0.00 48 1011.9
20260510163044 77 246 3.0 7.0 0.00 0.00 0.00 46 1012.0
20260510162526 77 287 1.0 6.0 0.00 0.00 0.00 46 1012.0
20260510162028 76 199 1.0 8.0 0.00 0.00 0.00 48 1011.9
20260510161545 76 223 3.0 8.0 0.00 0.00 0.00 48 1012.0
20260510161028 76 214 1.0 5.0 0.00 0.00 0.00 49 1011.9
20260510160526 76 242 1.0 6.0 0.00 0.00 0.00 49 1012.2
20260510160044 75 144 0.0 6.0 0.00 0.00 0.00 54 1012.2
20260510155528 74 74 2.0 7.0 0.00 0.00 0.00 52 1012.2
20260510155027 74 144 2.0 7.0 0.00 0.00 0.00 53 1012.3
20260510154543 73 246 3.0 7.0 0.00 0.00 0.00 53 1012.4
20260510154025 73 217 2.0 7.0 0.00 0.00 0.00 54 1012.4
20260510153525 73 235 1.0 7.0 0.00 0.00 0.00 54 1012.5
20260510153047 73 304 1.0 7.0 0.00 0.00 0.00 56 1012.6
20260510152525 73 234 0.0 4.0 0.00 0.00 0.00 59 1012.5
20260510152024 72 311 1.0 5.0 0.00 0.00 0.00 59 1012.4
20260510151540 72 10 1.0 6.0 0.00 0.00 0.00 59 1012.4
20260510151026 72 337 2.0 6.0 0.00 0.00 0.00 61 1012.4
20260510150529 71 321 1.0 2.0 0.00 0.00 0.00 62 1012.4
20260510150047 70 282 1.0 7.0 0.00 0.00 0.00 63 1012.5
20260510145532 69 257 2.0 7.0 0.00 0.00 0.00 63 1012.5
20260510145029 69 235 2.0 7.0 0.00 0.00 0.00 63 1012.5
20260510144549 68 285 1.0 5.0 0.00 0.00 0.00 65 1012.5
20260510144029 68 222 2.0 5.0 0.00 0.00 0.00 65 1012.6
20260510143528 68 236 2.0 5.0 0.00 0.00 0.00 66 1012.6
20260510143043 68 291 1.0 2.0 0.00 0.00 0.00 67 1012.7
20260510142529 68 267 1.0 2.0 0.00 0.00 0.00 67 1012.7
20260510142028 68 13 0.0 2.0 0.00 0.00 0.00 71 1012.5
20260510141540 66 0 0.0 2.0 0.00 0.00 0.00 71 1012.5
20260510141028 66 301 1.0 3.0 0.00 0.00 0.00 72 1012.8
20260510140529 65 74 1.0 3.0 0.00 0.00 0.00 76 1012.7
20260510140040 64 83 1.0 3.0 0.00 0.00 0.00 76 1012.6
20260510135529 63 145 1.0 2.0 0.00 0.00 0.00 76 1012.5
20260510135030 64 102 1.0 2.0 0.00 0.00 0.00 75 1012.6
20260510134551 63 230 0.0 2.0 0.00 0.00 0.00 77 1012.5
20260510134028 62 317 0.0 2.0 0.00 0.00 0.00 82 1012.5
20260510133527 60 44 1.0 2.0 0.00 0.00 0.00 82 1012.6
20260510133045 60 0 0.0 2.0 0.00 0.00 0.00 83 1012.6
20260510132528 59 246 1.0 2.0 0.00 0.00 0.00 85 1012.8
20260510132028 58 274 1.0 2.0 0.00 0.00 0.00 86 1012.7
20260510131545 58 277 0.0 2.0 0.00 0.00 0.00 88 1012.7
20260510131028 57 0 0.0 3.0 0.00 0.00 0.00 89 1012.8
20260510130528 56 331 1.0 3.0 0.00 0.00 0.00 89 1012.8
20260510130044 56 342 1.0 3.0 0.00 0.00 0.00 90 1012.8
20260510125529 56 126 1.0 2.0 0.00 0.00 0.00 92 1012.8
20260510125029 55 51 0.0 4.0 0.00 0.00 0.00 94 1012.7
20260510124541 55 0 1.0 4.0 0.00 0.00 0.00 93 1012.7
20260510124031 55 346 1.0 3.0 0.00 0.00 0.00 94 1012.7
20260510123529 54 248 0.0 3.0 0.00 0.00 0.00 95 1012.5
20260510123046 54 259 1.0 3.0 0.00 0.00 0.00 95 1012.5
20260510122529 54 298 1.0 2.0 0.00 0.00 0.00 95 1012.4
20260510122030 54 0 0.0 2.0 0.00 0.00 0.00 95 1012.0
20260510121552 53 5 0.0 2.0 0.00 0.00 0.00 95 1012.3
20260510121031 53 0 0.0 2.0 0.00 0.00 0.00 95 1012.2
20260510120528 53 32 1.0 5.0 0.00 0.00 0.00 95 1012.2
20260510120044 53 324 1.0 5.0 0.00 0.00 0.00 95 1012.2
20260510115529 53 276 3.0 5.0 0.00 0.00 0.00 95 1012.3
20260510115025 53 335 0.0 3.0 0.00 0.00 0.00 95 1012.0
20260510114539 53 44 1.0 3.0 0.00 0.00 0.00 95 1012.1
20260510114028 53 321 1.0 3.0 0.00 0.00 0.00 95 1011.9
20260510113525 53 46 1.0 3.0 0.00 0.00 0.00 95 1011.9
20260510113043 53 38 1.0 3.0 0.00 0.00 0.00 95 1011.8
20260510112525 53 15 0.0 2.0 0.00 0.00 0.00 95 1011.7
20260510112025 53 304 1.0 3.0 0.00 0.00 0.00 96 1011.6
20260510111546 52 46 1.0 3.0 0.00 0.00 0.00 95 1011.6
20260510111024 52 49 1.0 3.0 0.00 0.00 0.00 95 1011.5
20260510110529 52 81 1.0 3.0 0.00 0.00 0.00 95 1011.3
20260510110047 52 91 1.0 3.0 0.00 0.00 0.00 95 1011.2
20260510105526 52 48 1.0 2.0 0.00 0.00 0.00 95 1011.2
20260510105024 52 0 0.0 1.0 0.00 0.00 0.00 95 1011.2
20260510104554 52 99 0.0 1.0 0.00 0.00 0.00 95 1011.1
20260510104027 52 101 0.0 1.0 0.00 0.00 0.00 95 1011.1
20260510103526 52 101 0.0 1.0 0.00 0.00 0.00 95 1011.1
20260510103045 51 101 0.0 2.0 0.00 0.00 0.00 95 1011.0
20260510102532 51 0 0.0 2.0 0.00 0.00 0.00 95 1010.9
20260510102028 51 0 0.0 1.0 0.00 0.00 0.00 95 1010.9
20260510101536 51 86 0.0 1.0 0.00 0.00 0.00 95 1010.9
20260510101025 51 0 0.0 1.0 0.00 0.00 0.00 95 1011.1
20260510100530 51 0 0.0 1.0 0.00 0.00 0.00 95 1011.0
20260510100049 50 0 0.0 1.0 0.00 0.00 0.00 95 1011.0
20260510095525 50 321 1.0 1.0 0.00 0.00 0.00 95 1011.1
20260510095027 50 332 0.0 2.0 0.00 0.00 0.00 95 1010.7
20260510094548 50 332 0.0 2.0 0.00 0.00 0.00 95 1010.7
20260510094026 50 323 0.0 2.0 0.00 0.00 0.00 95 1010.7
20260510093524 50 318 1.0 5.0 0.00 0.00 0.00 95 1010.7
20260510093042 49 0 1.0 5.0 0.00 0.00 0.00 95 1010.6
20260510092525 49 323 2.0 4.0 0.00 0.00 0.00 95 1010.6
20260510092024 49 333 1.0 4.0 0.00 0.00 0.00 95 1010.4
20260510091541 49 0 0.0 0.0 0.00 0.00 0.00 94 1010.2
20260510091027 49 0 0.0 0.0 0.00 0.00 0.00 94 1010.0
20260510090527 49 0 0.0 1.0 0.00 0.00 0.00 94 1010.1
20260510090042 49 0 0.0 1.0 0.00 0.00 0.00 94 1010.1
20260510085524 49 332 0.0 1.0 0.00 0.00 0.00 94 1010.1
20260510085030 49 0 0.0 1.0 0.00 0.00 0.00 94 1010.0
20260510084549 49 0 0.0 1.0 0.00 0.00 0.00 94 1010.0
20260510084027 50 0 0.0 1.0 0.00 0.00 0.00 94 1010.1
20260510083527 50 332 0.0 3.0 0.00 0.00 0.00 94 1010.1
20260510083040 49 0 0.0 3.0 0.00 0.00 0.00 94 1010.0
20260510082524 49 326 0.0 3.0 0.00 0.00 0.00 94 1010.2
20260510082024 49 0 0.0 1.0 0.00 0.00 0.00 94 1010.0
20260510081543 50 0 0.0 0.0 0.00 0.00 0.00 94 1009.9
20260510081027 50 0 0.0 1.0 0.00 0.00 0.00 94 1010.0
20260510080530 50 0 0.0 2.0 0.00 0.00 0.00 94 1009.9
20260510080042 50 338 0.0 2.0 0.00 0.00 0.00 94 1009.9
20260510075529 50 332 1.0 2.0 0.00 0.00 0.00 94 1009.9
20260510075028 50 44 0.0 1.0 0.00 0.00 0.00 94 1009.8
20260510074601 50 0 0.0 0.0 0.00 0.00 0.00 94 1009.7
20260510074026 50 0 0.0 0.0 0.00 0.00 0.00 94 1009.6
20260510073525 50 0 0.0 1.0 0.00 0.00 0.00 94 1009.6
20260510073045 50 0 0.0 1.0 0.00 0.00 0.00 94 1009.5
20260510072525 50 0 0.0 0.0 0.00 0.00 0.00 94 1009.5
20260510072028 50 0 0.0 0.0 0.00 0.00 0.00 94 1009.4
20260510071544 50 0 0.0 0.0 0.00 0.00 0.00 94 1009.4
20260510071024 50 0 0.0 0.0 0.00 0.00 0.00 93 1009.4
20260510070527 50 0 0.0 0.0 0.00 0.00 0.00 94 1009.4
20260510070045 50 0 0.0 0.0 0.00 0.00 0.00 94 1009.4
20260510065524 50 0 0.0 0.0 0.00 0.00 0.00 94 1009.4
20260510065027 50 0 0.0 0.0 0.00 0.00 0.00 93 1009.4
20260510064556 50 0 0.0 0.0 0.00 0.00 0.00 93 1009.5
20260510064026 50 0 0.0 0.0 0.00 0.00 0.00 94 1009.5
20260510063528 50 0 0.0 0.0 0.00 0.00 0.00 93 1009.5
20260510063037 50 0 0.0 0.0 0.00 0.00 0.00 93 1009.7
20260510062525 50 0 0.0 0.0 0.00 0.00 0.00 93 1009.7
20260510062028 50 0 0.0 0.0 0.00 0.00 0.00 93 1009.8
20260510061542 50 0 0.0 0.0 0.00 0.00 0.00 93 1009.7
20260510061025 51 0 0.0 0.0 0.00 0.00 0.00 93 1009.7
20260510060525 51 0 0.0 0.0 0.00 0.00 0.00 93 1009.7
20260510060038 51 0 0.0 0.0 0.00 0.00 0.00 93 1009.8
20260510055537 51 0 0.0 0.0 0.00 0.00 0.00 92 1009.8
20260510055026 51 0 0.0 0.0 0.00 0.00 0.00 92 1009.8
20260510054544 51 0 0.0 0.0 0.00 0.00 0.00 92 1009.8
20260510054025 51 0 0.0 0.0 0.00 0.00 0.00 92 1009.9
20260510053524 51 0 0.0 0.0 0.00 0.00 0.00 92 1009.9
20260510053043 51 0 0.0 0.0 0.00 0.00 0.00 92 1009.8
20260510052524 51 0 0.0 0.0 0.00 0.00 0.00 92 1010.0
20260510052027 52 0 0.0 0.0 0.00 0.00 0.00 91 1009.9
20260510051551 52 0 0.0 1.0 0.00 0.00 0.00 91 1009.9
20260510051027 52 0 0.0 1.0 0.00 0.00 0.00 91 1009.9
20260510050524 52 0 0.0 1.0 0.00 0.00 0.00 92 1009.9
20260510050047 52 81 0.0 0.0 0.00 0.00 0.00 91 1010.0
20260510045525 52 0 0.0 0.0 0.00 0.00 0.00 90 1010.1
20260510045025 53 0 0.0 0.0 0.00 0.00 0.00 90 1010.1
20260510044544 53 0 0.0 0.0 0.00 0.00 0.00 90 1010.1
20260510044024 53 0 0.0 1.0 0.00 0.00 0.00 91 1010.1
20260510043524 53 0 0.0 1.0 0.00 0.00 0.00 90 1010.2
20260510043049 53 0 0.0 1.0 0.00 0.00 0.00 90 1010.2
20260510042527 54 0 0.0 1.0 0.00 0.00 0.00 90 1010.1
20260510042026 54 81 0.0 1.0 0.00 0.00 0.00 90 1010.1
20260510041557 54 0 0.0 1.0 0.00 0.00 0.00 90 1010.2
20260510041026 54 80 0.0 1.0 0.00 0.00 0.00 90 1010.2
20260510040527 54 80 0.0 2.0 0.00 0.00 0.00 89 1010.1
20260510040043 54 0 0.0 2.0 0.00 0.00 0.00 89 1010.2
20260510035524 54 82 0.0 2.0 0.00 0.00 0.00 90 1010.2
20260510035025 54 126 0.0 1.0 0.00 0.00 0.00 89 1010.1
20260510034546 54 0 0.0 1.0 0.00 0.00 0.00 89 1010.1
20260510034027 54 0 0.0 1.0 0.00 0.00 0.00 89 1010.0
20260510033528 54 137 0.0 2.0 0.00 0.00 0.00 89 1010.0
20260510033047 54 141 0.0 2.0 0.00 0.00 0.00 89 1009.9
20260510032526 54 0 0.0 1.0 0.00 0.00 0.00 88 1009.9
20260510032026 54 0 0.0 0.0 0.00 0.00 0.00 88 1009.8
20260510031544 54 0 0.0 0.0 0.00 0.00 0.00 87 1009.7
20260510031024 54 0 0.0 0.0 0.00 0.00 0.00 87 1009.8
20260510030529 55 0 0.0 1.0 0.00 0.00 0.00 87 1009.7
20260510030049 55 0 0.0 2.0 0.00 0.00 0.00 87 1009.7
20260510025528 55 0 0.0 2.0 0.00 0.00 0.00 86 1009.7
20260510025026 55 119 0.0 2.0 0.00 0.00 0.00 86 1009.6
20260510024551 55 159 0.0 3.0 0.00 0.00 0.00 86 1009.6
20260510024026 55 101 0.0 3.0 0.00 0.00 0.00 86 1009.7
20260510023527 55 107 1.0 3.0 0.00 0.00 0.00 85 1009.8
20260510023035 55 136 0.0 2.0 0.00 0.00 0.00 85 1009.8
20260510022525 55 263 0.0 2.0 0.00 0.00 0.00 84 1009.8
20260510022025 56 113 0.0 2.0 0.00 0.00 0.00 84 1009.8
20260510021544 56 123 1.0 2.0 0.00 0.00 0.00 84 1009.7
20260510021024 56 126 0.0 2.0 0.00 0.00 0.00 84 1009.8
20260510020525 56 0 1.0 2.0 0.00 0.00 0.00 83 1009.7
20260510020051 56 132 0.0 3.0 0.00 0.00 0.00 83 1009.6
20260510015524 56 98 0.0 3.0 0.00 0.00 0.00 83 1009.7
20260510015024 56 92 0.0 2.0 0.00 0.00 0.00 83 1009.8
20260510014542 56 101 1.0 2.0 0.00 0.00 0.00 83 1009.6
20260510014024 56 115 1.0 2.0 0.00 0.00 0.00 83 1009.7
20260510013524 56 92 0.0 2.0 0.00 0.00 0.00 82 1009.8
20260510013046 56 112 0.0 2.0 0.00 0.00 0.00 82 1009.8
20260510012526 56 101 0.0 2.0 0.00 0.00 0.00 82 1009.8
20260510012025 56 114 1.0 2.0 0.00 0.00 0.00 82 1009.6
20260510011543 57 0 0.0 2.0 0.00 0.00 0.00 82 1009.5
20260510011027 57 0 0.0 2.0 0.00 0.00 0.00 82 1009.6
20260510010525 57 0 0.0 2.0 0.00 0.00 0.00 81 1009.6
20260510010051 57 111 0.0 2.0 0.00 0.00 0.00 81 1009.4
20260510005524 57 115 0.0 1.0 0.00 0.00 0.00 81 1009.4
20260510005025 57 115 0.0 2.0 0.00 0.00 0.00 80 1009.5
20260510004553 57 0 0.0 2.0 0.00 0.00 0.00 80 1009.4
20260510004027 57 107 0.0 1.0 0.00 0.00 0.00 80 1009.5
20260510003526 58 0 0.0 1.0 0.00 0.00 0.00 79 1009.3
20260510003044 58 0 0.0 1.0 0.00 0.00 0.00 79 1009.4
20260510002527 58 0 0.0 1.0 0.00 0.00 0.00 78 1009.4
20260510002026 58 0 0.0 1.0 0.00 0.00 0.00 78 1009.5
20260510001539 59 0 0.0 1.0 0.00 0.00 0.00 77 1009.4
20260510001028 59 0 0.0 1.0 0.00 0.00 0.00 77 1009.4
20260510000524 59 99 0.0 1.0 0.00 0.00 0.00 76 1009.4
20260510000043 59 0 0.0 2.0 0.00 0.00 0.00 76 1009.5
20260509235524 60 72 0.0 3.0 0.00 0.00 0.00 75 1009.5
20260509235027 60 46 0.0 3.0 0.00 0.00 0.00 75 1009.4
20260509234559 60 121 0.0 3.0 0.00 0.00 0.00 75 1009.3
20260509234027 60 103 0.0 3.0 0.00 0.00 0.00 74 1009.2
20260509233524 60 0 1.0 3.0 0.00 0.00 0.00 74 1009.2
20260509233045 60 106 1.0 3.0 0.00 0.00 0.00 73 1009.1
20260509232528 60 103 0.0 3.0 0.00 0.00 0.00 73 1009.0
20260509232023 61 98 1.0 3.0 0.00 0.00 0.00 72 1009.1
20260509231543 61 98 1.0 5.0 0.00 0.00 0.00 72 1009.0
20260509231026 61 44 1.0 5.0 0.00 0.00 0.00 71 1009.1
20260509230530 61 48 2.0 5.0 0.00 0.00 0.00 71 1009.0
20260509230040 61 57 2.0 5.0 0.00 0.00 0.00 71 1009.0
20260509225523 61 55 2.0 6.0 0.00 0.00 0.00 71 1009.0
20260509225031 61 39 2.0 6.0 0.00 0.00 0.00 70 1009.0
20260509224543 61 97 2.0 6.0 0.00 0.00 0.00 69 1009.1